This demonstration page uses our WeatherBlox Daily Observations layout. Learn more.

Left ArrowRight Arrow

39.01783, -85.05884

Hourly Observations for March 18, 2018

Temp ( °F °C ) Dew Point ( °F °C ) Humidity (%) Winds ( mph kmh ) Pressure ( in mb ) Visibility ( mi km ) Precip ( " mm )
12:52 am 00:52 Cloudy 40 4.4 34 1.1 79 79 N 10 17 29.98 1015 10 16 N/A
1:52 am 01:52 Cloudy 40 4.4 32 undefined 73 73 NNE 8 13 29.99 1016 10 16 N/A
2:52 am 02:52 Cloudy 39 3.9 31 -0.6 73 73 NNE 10 17 30.01 1016 10 16 N/A
3:52 am 03:52 Clear 36 2.2 29 -1.7 76 76 NNE 8 13 30.01 1016 10 16 N/A
4:52 am 04:52 Clear 35 1.7 27 -2.8 72 72 NE 7 11 30.01 1016 10 16 N/A
5:52 am 05:52 Clear 31 -0.6 25 -3.9 79 79 NNE 6 9 30.03 1017 10 16 N/A
6:52 am 06:52 Clear 32 undefined 25 -3.9 75 75 NE 6 9 30.04 1017 10 16 N/A
7:52 am 07:52 Sunny 29 -1.7 24 -4.4 82 82 N 6 9 30.06 1018 10 16 N/A
8:52 am 08:52 Sunny 34 1.1 26 -3.3 73 73 NE 6 9 30.06 1018 10 16 N/A
9:52 am 09:52 Sunny 37 2.8 26 -3.3 65 65 ENE 6 9 30.08 1019 10 16 N/A
10:52 am 10:52 Sunny 41 5 24 -4.4 51 51 VRB 3 6 30.08 1019 10 16 N/A
11:52 am 11:52 Sunny 46 7.8 20 -6.7 35 35 ENE 12 19 30.06 1018 10 16 N/A
12:52 pm 12:52 Sunny 48 8.9 16 -8.9 28 28 VRB 6 9 30.06 1018 10 16 N/A
1:52 pm 13:52 Sunny 51 10.6 17 -8.3 26 26 NE 6 9 30.02 1017 10 16 N/A
2:52 pm 14:52 Mostly Sunny 53 11.7 13 -10.6 20 20 E 3 6 30.00 1016 10 16 N/A
3:52 pm 15:52 Mostly Sunny 56 13.3 16 -8.9 21 21 NNE 7 11 29.97 1015 10 16 N/A
4:52 pm 16:52 Mostly Cloudy 55 12.8 15 -9.4 20 20 VRB 3 6 29.94 1014 10 16 N/A
5:52 pm 17:52 Mostly Cloudy 57 13.9 16 -8.9 20 20 ENE 5 7 29.93 1014 10 16 N/A
6:52 pm 18:52 Mostly Cloudy 55 12.8 15 -9.4 20 20 ENE 8 13 29.91 1013 10 16 N/A
7:52 pm 19:52 Partly Cloudy 53 11.7 16 -8.9 23 23 ENE 7 11 29.92 1013 10 16 N/A
8:52 pm 20:52 Partly Cloudy 47 8.3 19 -7.2 33 33 E 5 7 29.91 1013 10 16 N/A
9:52 pm 21:52 Partly Cloudy 47 8.3 19 -7.2 33 33 N N/A 29.91 1013 10 16 N/A
10:52 pm 22:52 Partly Cloudy 46 7.8 20 -6.7 35 35 N N/A 29.89 1012 10 16 N/A
11:52 pm 23:52 Partly Cloudy 44 6.7 23 -5 43 43 ENE 7 11 29.88 1012 10 16 N/A

Powered by AerisWeather